Temp
8 8 8 8 8 9 9 9 9 11 12 13 13 13 14 15 15 15 11 11 12 14 15 17 18 19 18 16 16 17 13 13 14 14 13 12 12 14 14 14 14 13 13 13 13
8 8 8 8 9 9 10 10 11 11 12 13 13 13 14 15 15 12 12 14 14 14 15 15 15 17 14 15 14 13 11 14 14 13 12 12 12 11 13 12 11 12 13 13 11
7 8 8 9 9 9 10 11 12 12 12 13 13 13 14 14 14 13 13 14 15 16 16 16 17 18 15 14 14 14 13 15 13 13 13 13 12 12 11 11 11 10 11 11 9
7 8 8 9 9 9 11 11 12 12 12 13 13 14 14 14 17 13 13 14 15 16 17 17 17 16 14 14 16 13 14 14 14 14 14 13 12 12 11 10 11 11 11 10 9
8 8 8 9 9 10 11 11 12 12 12 13 13 14 14 13 12 13 13 14 15 16 15 16 15 15 14 14 14 12 14 14 14 14 13 14 12 13 11 12 11 11 11 10 9
8 8 9 9 9 10 11 11 12 12 13 13 13 14 14 15 12 13 13 14 14 15 14 14 14 14 13 13 13 14 14 14 14 14 14 13 12 13 12 11 11 11 10 9 9
8 8 8 9 9 10 11 11 12 13 13 13 14 14 12 12 12 13 13 13 14 14 13 14 14 14 14 13 14 14 14 13 14 14 14 13 12 11 10 10 10 10 9 9 8
7 8 8 9 9 10 11 12 12 13 13 14 14 13 12 13 13 13 14 14 14 14 14 15 15 13 13 13 14 14 13 12 14 13 15 13 12 12 10 10 9 10 9 8 8
8 8 8 9 9 10 11 12 13 13 13 14 14 14 13 13 13 13 13 13 14 14 15 15 15 13 14 13 10 10 11 10 14 13 13 13 11 12 10 10 9 9 8 8 8
8 8 8 9 9 10 12 12 13 14 14 14 14 14 13 13 13 13 13 13 13 14 14 15 13 11 9 8 10 9 9 11 12 13 12 12 11 10 10 10 8 8 8 8 7
8 8 8 8 9 11 12 13 12 11 12 11 12 13 13 13 13 13 13 13 14 14 14 15 10 8 10 10 9 6 6 9 9 13 12 9 9 10 11 10 8 8 8 7 7
8 8 8 9 10 10 11 11 11 12 11 12 12 12 12 12 13 12 13 14 15 14 16 10 10 12 13 12 10 7 9 7 9 10 11 7 9 11 12 11 10 9 8 7 7
8 8 8 9 10 10 10 11 11 11 12 12 12 13 12 12 12 12 12 13 14 14 13 11 12 13 13 13 13 12 13 12 11 12 12 12 9 8 12 12 11 9 9 8 7
8 8 8 9 10 10 10 11 11 11 7 12 12 12 12 13 12 12 12 13 15 14 12 12 13 13 13 14 13 14 13 12 12 11 9 13 9 10 13 11 10 9 7 7 7
8 8 8 8 9 10 10 10 11 11 11 13 12 12 12 13 12 12 12 13 13 14 13 13 12 12 13 13 13 13 13 12 12 12 13 12 11 11 12 12 9 8 8 6 6
8 8 8 8 9 10 10 11 11 8 11 11 11 11 12 13 13 12 13 13 12 14 12 12 13 13 12 13 13 13 12 12 12 11 9 12 12 12 12 12 11 9 8 7 6
8 8 8 9 9 10 10 10 8 8 10 8 10 11 12 12 12 13 12 11 8 8 7 12 12 12 12 12 13 12 11 10 10 9 11 13 12 12 13 12 11 9 8 6 5
8 7 7 8 9 10 10 8 8 6 5 10 11 12 11 12 12 12 12 8 12 11 5 9 11 12 12 12 12 11 12 9 12 12 12 12 14 14 12 10 10 9 8 7 5
7 7 7 8 8 9 7 7 8 7 9 9 12 9 10 12 11 12 10 8 11 12 11 9 11 12 12 12 12 13 11 12 11 4 9 12 14 12 11 11 10 9 9 7 6
6 6 6 8 8 9 6 9 6 7 10 11 10 8 5 6 9 10 10 11 11 11 11 12 11 11 12 11 12 12 12 11 9 8 11 12 14 12 10 10 10 10 8 7 6
7 4 5 7 8 5 6 5 4 7 10 11 9 6 9 7 6 9 10 11 11 10 11 11 11 10 11 11 12 11 11 12 11 11 13 13 13 12 13 10 9 9 8 7 6
6 5 4 6 5 3 3 4 7 7 8 9 9 10 9 8 8 7 10 10 11 10 10 10 10 7 12 10 10 11 12 12 10 13 10 12 12 14 13 11 10 9 9 7 6
3 3 4 3 6 -0 0 1 4 7 7 7 7 10 11 9 9 9 7 7 8 10 9 10 7 5 9 9 10 10 10 12 10 9 11 10 13 12 12 13 10 9 8 7 5
3 3 3 3 3 3 1 2 3 6 7 8 9 9 8 8 4 6 7 8 8 8 9 9 8 9 12 13 10 11 11 10 10 7 11 10 12 13 11 11 11 9 7 6 5
2 4 2 3 4 4 5 4 3 4 6 8 8 8 8 5 7 4 5 6 8 8 8 6 5 4 9 10 11 11 11 9 9 10 11 13 11 12 12 10 9 9 7 6 6
4 3 2 3 6 5 6 3 6 6 5 6 7 7 8 7 10 7 6 6 8 6 7 6 4 1 4 7 9 9 8 8 8 9 9 10 11 12 11 10 10 9 8 8 7
5 6 7 6 6 6 6 5 7 7 7 8 7 8 8 8 6 6 6 5 5 5 2 3 1 1 6 1 2 8 6 7 8 8 10 10 11 12 13 14 13 9 9 9 8
Height
826 824 825 824 823 821 820 818 818 815 813 812 809 808 807 806 806 802 805 810 805 801 797 793 789 790 790 793 792 792 819 833 832 830 833 831 831 826 822 824 821 824 823 819 810
825 824 824 824 822 821 819 818 817 815 813 812 810 809 807 807 806 807 812 808 805 802 798 795 793 792 798 799 800 808 833 829 831 832 836 833 832 831 827 827 827 823 819 816 811
825 824 823 823 822 821 819 818 816 815 813 812 810 809 808 807 807 812 811 808 804 802 800 798 795 794 803 807 812 816 830 826 832 831 831 832 831 829 832 832 832 825 819 815 811
824 824 822 822 820 820 818 818 816 814 813 811 811 809 808 808 813 814 811 808 805 802 799 798 796 801 813 816 813 827 828 827 829 828 829 830 829 831 833 834 829 824 819 814 807
822 821 821 821 820 819 817 817 815 814 813 812 811 810 809 811 816 814 812 808 806 802 801 800 803 806 816 817 819 829 829 828 828 826 830 827 828 829 831 827 826 820 816 811 804
821 820 819 820 819 818 817 816 815 813 813 812 811 811 810 814 816 815 813 811 809 806 806 804 808 808 815 822 825 826 829 828 827 826 827 828 829 827 829 826 824 819 814 810 805
820 819 819 818 819 817 816 816 815 813 813 813 812 812 813 819 817 815 813 813 812 810 810 809 808 809 815 825 824 827 830 832 829 828 827 828 831 832 832 827 823 817 812 808 803
818 817 818 817 817 816 816 814 814 813 813 813 813 813 818 817 817 816 814 814 814 813 812 811 810 812 819 824 826 828 833 841 832 831 825 828 834 828 829 826 822 816 812 806 798
816 816 815 816 816 816 814 814 813 814 813 813 814 815 819 818 818 817 816 816 814 814 813 812 811 819 823 830 843 844 849 853 835 832 833 831 836 829 827 826 824 817 814 808 802
814 814 814 814 816 814 813 814 813 814 814 813 814 819 819 822 820 818 817 816 817 816 815 813 819 832 842 847 861 857 861 849 842 834 834 833 835 833 829 826 827 821 816 810 805
812 812 813 814 814 813 813 814 817 818 816 819 820 819 819 820 820 820 818 817 817 818 823 819 840 858 846 845 852 867 871 862 854 834 837 844 842 835 828 828 828 825 821 818 811
809 810 811 812 812 812 813 814 815 816 821 819 820 820 820 820 821 820 819 820 819 824 819 839 848 838 836 837 845 861 855 868 851 840 839 851 843 829 826 827 828 828 825 820 814
806 807 810 811 811 812 812 815 814 815 819 822 820 819 821 822 823 823 821 821 821 824 828 840 838 835 835 837 837 840 839 843 847 835 831 833 842 843 826 827 828 828 827 823 821
803 805 808 810 814 810 812 814 814 813 841 823 823 821 822 821 825 823 823 824 821 828 833 839 837 836 836 836 837 835 837 838 839 844 857 829 865 836 825 830 831 830 831 829 823
800 803 807 810 809 810 812 814 814 814 842 821 823 822 821 823 826 824 824 823 827 828 831 840 841 840 837 837 837 839 837 838 836 839 837 836 844 833 827 827 834 835 832 832 830
797 801 805 808 809 809 810 812 816 842 836 823 822 822 823 822 824 825 824 825 828 828 834 838 837 838 841 838 837 836 838 837 836 844 870 838 843 833 828 825 828 833 835 834 833
795 799 804 806 805 808 810 814 841 849 827 837 826 821 820 825 825 825 827 835 849 859 865 839 839 838 836 838 839 842 846 862 859 870 856 835 840 832 823 825 827 832 834 835 834
793 797 801 803 805 807 810 825 847 840 842 821 816 818 826 823 824 824 828 851 832 833 870 856 851 840 838 840 842 845 843 861 854 854 852 838 831 825 822 828 828 830 832 835 836
790 796 800 802 805 807 814 841 826 827 815 818 816 830 832 823 826 825 834 843 832 830 836 851 849 841 841 839 841 838 850 841 852 895 869 843 825 825 825 825 827 830 831 835 836
785 794 798 801 804 808 820 815 823 813 806 808 820 826 855 847 834 833 833 828 831 831 831 831 846 844 841 841 840 840 841 849 862 881 862 841 826 831 830 828 826 827 830 834 835
785 795 797 799 805 813 824 827 820 811 804 805 814 835 824 836 844 833 832 829 828 832 832 829 835 854 845 842 841 845 844 843 849 852 845 844 833 818 814 819 823 825 826 830 833
779 795 796 798 811 819 825 817 806 809 807 807 808 810 820 827 830 837 826 827 829 831 833 833 839 864 840 843 844 842 838 840 861 841 856 846 839 811 811 814 818 821 823 826 829
778 793 797 799 804 828 825 822 815 808 809 809 812 804 806 817 829 824 835 834 835 831 833 834 857 881 854 851 846 846 841 836 846 857 846 863 829 813 815 812 815 819 823 826 829
768 792 800 800 798 801 818 819 818 806 804 802 802 803 812 818 835 835 834 834 835 838 834 833 845 845 832 826 836 838 835 840 843 867 847 844 829 817 817 815 815 818 821 822 825
757 766 771 789 792 790 790 799 810 813 806 801 806 803 808 832 828 841 839 839 836 838 838 843 862 866 842 835 830 831 830 839 843 837 839 822 827 814 813 814 813 810 817 823 823
742 752 764 770 772 785 782 797 786 796 799 805 802 802 803 812 799 822 826 833 825 841 840 842 863 881 870 849 841 839 840 842 840 837 837 828 821 802 802 805 810 809 810 812 815
723 730 734 751 765 773 771 777 775 777 788 784 790 796 802 801 804 808 816 820 824 835 854 855 871 882 865 879 872 843 838 837 831 827 820 826 810 802 801 798 797 804 805 805 806
Wind_Speed
5 5 7 8 10 10 11 11 12 12 11 10 9 9 6 7 12 19 11 13 14 17 12 14 7 4 6 5 6 3 5 3 4 5 5 7 7 6 5 5 5 9 6 16 28
6 6 7 8 9 9 10 11 11 12 10 9 9 9 6 5 4 16 16 16 16 14 12 13 7 9 4 6 5 6 4 3 3 3 4 7 5 7 6 8 5 16 19 23 27
7 7 7 7 9 9 9 9 10 11 9 8 7 8 5 5 3 4 19 15 15 16 7 7 9 2 5 5 6 5 4 4 5 3 2 4 5 5 6 6 11 17 15 19 20
8 8 7 8 8 9 8 9 9 9 8 7 6 6 5 3 2 8 16 16 17 14 7 4 3 4 4 5 3 6 7 5 1 1 1 0 5 5 6 4 9 14 18 19 15
9 7 7 8 8 8 8 9 8 8 7 6 6 5 2 4 2 11 13 17 15 12 18 4 7 4 4 5 4 6 2 3 4 2 4 2 5 2 6 7 8 15 16 14 14
10 8 7 7 8 8 7 8 8 6 6 5 5 5 2 2 3 9 12 16 17 16 18 12 3 4 7 5 5 3 4 2 3 2 2 3 4 3 3 7 9 14 14 14 14
11 8 7 6 8 7 7 7 7 4 3 3 5 5 5 2 3 9 8 12 14 13 5 12 8 5 5 3 2 3 2 1 2 2 1 2 2 4 4 8 12 14 14 16 15
12 9 7 7 7 7 7 6 4 2 3 1 3 3 2 2 5 10 7 6 7 9 5 6 8 6 5 3 2 1 4 3 3 5 4 3 6 3 6 9 13 16 15 17 19
13 10 7 6 6 7 6 3 2 2 3 2 3 1 1 2 4 7 9 4 6 4 4 4 2 4 2 3 4 6 1 3 2 3 5 4 5 5 7 7 9 14 15 15 17
14 10 7 5 6 5 4 1 2 2 3 3 1 2 2 2 3 4 5 5 2 6 4 4 5 4 5 5 2 2 3 4 3 5 5 3 5 8 6 6 7 9 14 17 17
14 10 7 5 4 3 1 2 3 4 7 2 1 3 2 2 3 4 5 6 1 1 3 4 7 3 3 4 4 6 4 2 5 5 4 2 5 8 6 6 7 8 13 14 15
15 10 8 5 2 1 2 1 1 3 3 1 1 3 2 1 2 6 9 3 1 2 2 6 4 4 4 5 5 3 2 4 5 6 2 2 6 4 3 4 4 6 9 14 16
16 11 8 4 2 3 3 2 3 4 3 1 1 2 1 2 2 4 5 2 3 4 3 5 4 4 1 1 1 3 1 1 3 5 3 1 5 5 1 4 5 7 5 10 13
18 13 9 5 3 4 2 4 7 3 4 1 1 1 1 1 3 2 3 1 2 4 5 5 3 1 2 1 2 2 1 3 4 4 1 2 3 3 2 3 5 7 8 9 12
19 14 11 8 4 4 2 7 6 2 2 1 2 0 0 2 3 2 2 1 3 3 4 2 4 2 1 2 1 2 1 2 2 2 2 7 3 6 1 3 6 6 7 8 8
21 16 13 9 4 4 7 8 2 6 5 3 3 3 3 1 1 2 2 2 1 3 6 3 0 2 0 3 2 1 2 2 2 2 3 5 3 4 1 2 2 3 5 6 6
23 18 15 10 4 9 12 3 5 4 5 4 4 4 3 3 2 2 3 2 3 5 1 2 1 2 2 2 2 1 2 3 5 4 3 4 2 7 2 3 2 4 4 6 6
25 20 16 11 8 16 7 5 3 3 5 4 3 4 4 5 1 2 4 1 2 3 3 5 4 1 3 2 2 3 2 4 4 0 4 3 3 4 3 6 4 5 6 6 6
28 21 11 11 13 15 4 2 8 7 6 9 3 5 1 2 4 3 7 5 5 4 5 5 2 1 2 0 3 2 2 2 5 3 3 3 3 3 0 3 4 5 5 4 4
24 11 5 14 16 5 4 6 4 4 5 3 5 4 6 5 4 4 6 3 4 0 1 4 5 1 1 1 2 3 1 3 3 2 1 4 5 4 6 8 7 6 6 5 4
17 4 9 17 11 4 4 7 4 5 1 6 5 4 4 7 6 6 8 1 4 4 2 4 3 4 2 3 2 1 1 2 2 2 2 2 5 5 6 8 9 8 7 8 7
10 3 13 20 3 1 3 6 2 4 1 2 3 4 6 6 5 3 6 3 0 5 5 2 4 3 2 1 0 1 1 3 4 2 2 1 5 1 2 7 9 8 8 7 6
5 3 3 3 6 3 2 1 3 5 5 6 4 3 2 6 4 4 3 1 6 1 5 2 2 3 6 4 3 3 4 3 4 3 4 3 5 1 3 1 6 9 8 7 7
4 4 2 2 1 7 6 5 4 3 4 4 5 4 4 3 4 5 3 1 3 2 5 3 2 4 5 4 3 4 4 4 5 3 2 6 6 4 7 6 5 6 8 9 9
3 5 6 8 9 6 7 9 7 6 3 4 2 4 7 4 3 3 3 3 3 2 1 4 3 2 4 3 1 4 4 8 8 5 6 4 5 6 7 8 10 9 8 8 9
7 5 2 4 14 10 12 9 13 6 9 6 5 9 7 7 8 10 8 4 5 3 3 1 2 2 4 4 2 5 7 8 6 4 9 11 17 12 9 7 6 10 12 12 11
7 7 6 12 11 13 9 9 12 13 4 5 9 7 7 3 6 9 7 8 7 7 4 4 5 3 5 4 3 7 8 12 5 4 7 7 10 3 3 3 3 8 11 14 13
Wind_Direction
319 337 338 347 349 353 356 357 350 352 354 355 358 354 340 351 37 47 40 337 334 349 353 350 359 338 30 25 15 24 58 64 27 22 304 358 20 330 298 346 329 2 343 314 331
302 319 327 337 343 347 352 350 351 349 354 355 359 356 359 353 29 53 358 357 1 359 356 4 355 15 41 12 12 54 77 83 42 38 5 337 8 324 14 355 350 328 321 330 335
293 305 317 327 335 338 350 350 351 348 353 356 0 0 4 0 65 12 350 3 12 5 322 314 313 4 60 37 359 24 96 122 44 64 326 330 353 332 27 10 318 312 330 329 327
282 294 307 317 329 331 347 344 347 347 350 357 354 356 356 7 134 348 355 10 18 12 10 289 325 52 72 49 16 91 45 70 104 290 179 313 298 357 67 266 314 346 335 327 319
268 280 296 310 322 329 339 340 344 345 350 355 357 350 5 47 42 340 9 17 32 33 32 20 43 68 91 93 53 81 135 124 236 269 160 253 327 290 5 339 332 334 340 331 332
259 270 282 303 316 325 333 335 338 346 351 9 20 357 9 87 17 2 19 25 35 42 41 45 71 82 79 60 67 115 142 144 320 32 177 351 30 55 348 335 329 350 354 344 348
259 265 277 295 309 321 329 331 333 348 359 25 32 24 49 137 16 14 33 30 26 43 28 34 25 84 124 85 359 107 82 264 340 347 295 329 15 323 331 337 340 354 355 355 351
254 259 270 287 302 312 321 328 336 357 1 35 23 24 71 34 46 19 39 66 34 38 57 32 32 86 76 117 84 107 80 51 321 8 317 55 294 342 348 356 345 351 4 355 355
248 254 256 278 296 309 322 329 8 28 20 80 49 32 41 7 36 6 24 20 347 343 8 347 27 101 65 70 28 14 69 17 353 66 17 46 297 324 9 357 343 356 6 357 358
243 245 245 263 293 318 323 312 74 58 30 65 42 29 42 26 345 9 6 12 352 332 346 26 50 67 25 54 186 252 28 343 305 330 17 342 303 315 342 357 349 353 5 359 359
237 234 231 253 287 330 110 130 40 12 36 65 108 127 50 333 10 11 8 344 310 23 79 26 67 92 125 87 112 110 112 305 258 299 3 5 297 300 321 359 10 0 6 6 348
228 221 224 238 264 224 170 87 164 143 97 17 113 79 62 15 128 8 358 29 346 106 73 27 104 143 118 140 121 103 84 293 290 262 140 348 301 307 328 345 42 17 6 4 355
220 207 215 222 220 191 168 220 163 143 97 102 16 93 164 6 74 347 10 319 61 55 48 123 180 146 222 192 57 182 251 324 262 309 280 343 323 351 110 42 38 44 17 20 10
211 201 200 198 193 146 189 209 157 106 72 223 231 13 44 314 50 337 4 29 44 127 117 103 186 226 248 69 58 144 36 2 318 24 308 130 277 299 184 43 33 28 35 16 13
203 195 194 189 150 160 157 164 155 92 13 113 140 104 116 99 142 348 12 19 88 105 92 198 165 233 314 136 90 209 320 272 265 322 8 334 65 274 142 343 26 33 36 25 9
196 193 187 188 183 172 159 146 156 50 256 148 133 153 121 158 104 133 46 67 119 83 44 108 18 59 48 310 216 345 319 264 342 55 33 287 102 290 316 263 89 34 43 41 20
193 190 184 172 188 168 152 117 51 139 1 259 176 157 176 153 135 175 130 60 139 84 352 349 179 162 127 53 356 18 40 6 6 13 212 304 39 248 182 176 148 116 65 47 31
189 182 180 180 167 157 127 61 122 228 202 236 148 119 161 162 120 143 115 7 240 142 113 148 327 231 345 103 180 287 183 157 169 292 280 285 265 285 155 139 137 129 121 87 58
180 169 179 183 170 159 85 111 208 200 164 149 65 99 253 212 144 152 174 186 189 181 157 135 355 345 34 46 121 341 21 326 100 24 57 265 252 298 241 218 191 173 117 97 84
152 138 172 174 162 135 85 237 213 197 133 144 144 152 166 209 134 152 181 208 180 135 113 185 96 354 259 275 233 144 209 18 1 83 308 292 291 241 246 237 228 205 174 160 140
143 112 168 159 150 58 175 224 210 229 199 155 167 132 172 165 162 175 196 6 159 165 302 172 106 275 11 223 184 80 30 112 138 114 152 302 263 209 228 205 206 213 197 182 169
140 135 167 153 114 146 184 190 160 175 138 136 114 125 153 163 145 172 170 100 250 148 149 302 126 127 224 279 35 179 189 130 118 290 297 138 277 256 98 193 179 204 193 191 170
118 108 138 310 168 225 329 342 198 146 196 161 171 151 153 150 117 149 143 19 36 66 140 208 325 58 348 349 21 248 203 160 122 92 215 151 259 4 333 95 199 182 182 183 174
107 129 144 203 222 150 149 204 190 237 196 164 142 114 109 107 25 148 127 87 63 37 79 69 103 185 183 175 136 176 181 183 133 129 210 234 292 289 260 240 221 204 190 181 175
145 190 181 177 217 190 164 156 142 169 237 173 351 192 157 117 76 132 115 122 62 161 38 103 175 19 295 279 217 212 183 180 202 199 171 226 243 240 247 236 226 206 179 185 187
148 149 150 175 185 174 185 209 167 177 151 225 202 174 174 158 183 185 141 189 173 184 158 90 161 76 297 322 352 269 229 220 213 236 274 271 284 270 261 220 237 218 183 194 199
168 133 142 159 166 181 197 182 192 135 249 196 161 131 145 179 93 89 75 94 120 136 146 129 125 90 274 344 3 314 223 185 201 204 169 194 224 251 294 293 309 213 200 202 199